Theta_e
312 312 313 312 312 312 312 313 314 313 315 314 315 316 316 316 315 317 322 323 323 324 324 325 326 326 333 336 336 337 337 337 337 338 338 339 340 340 340 336 332 337 336
312 312 313 312 311 310 310 311 311 311 313 314 312 311 313 315 316 318 318 317 317 317 317 322 325 327 330 329 325 323 328 331 335 335 336 336 337 338 339 339 339 338 337
314 313 313 313 312 312 311 311 311 311 312 313 313 312 311 313 315 315 315 315 315 315 314 314 320 323 323 323 323 322 324 324 330 334 333 335 335 335 337 339 339 338 332
314 313 313 313 313 313 312 311 311 312 312 313 313 312 312 313 314 315 315 315 315 313 311 309 310 315 321 321 323 323 325 323 324 327 329 331 332 333 335 335 334 336 335
315 314 314 314 314 313 312 311 311 312 313 313 312 310 309 312 313 314 315 315 314 313 311 310 313 313 313 319 319 323 324 325 324 324 325 326 327 330 331 332 333 333 333
315 315 314 314 314 314 313 312 312 313 312 310 310 311 310 311 311 312 313 315 314 313 313 311 313 315 317 316 318 318 318 323 323 322 322 323 323 324 329 330 331 331 327
316 315 314 313 314 314 313 312 312 310 309 309 311 311 311 313 312 313 313 314 314 313 314 312 311 312 314 318 317 315 316 316 316 318 320 321 320 320 322 328 329 328 328
313 312 312 311 312 312 312 311 310 309 309 311 311 310 311 312 312 313 313 313 313 313 313 312 311 309 311 314 315 315 315 314 315 315 315 312 311 312 318 320 316 316 314
310 309 309 310 309 309 309 310 310 309 309 309 310 309 311 312 312 312 311 310 310 312 313 311 310 310 310 310 310 310 311 311 310 309 308 308 308 308 308 312 320 316 313
308 308 307 306 306 306 307 309 310 309 309 308 307 309 310 311 308 308 308 308 310 311 312 310 310 310 310 309 309 309 308 307 306 305 304 309 310 309 308 309 311 318 315
306 305 305 305 306 306 307 308 308 307 308 307 307 307 308 307 306 307 306 306 305 305 306 307 308 308 308 309 308 307 306 306 305 305 305 306 311 311 310 312 312 312 316
305 305 305 305 305 306 306 306 306 306 306 306 305 305 304 304 305 306 305 304 303 303 303 303 303 304 305 306 306 306 305 304 305 306 307 309 310 311 314 316 316 316 314
305 305 304 304 304 305 306 305 305 305 305 305 304 304 304 303 304 304 303 303 303 303 303 303 303 303 303 304 304 304 304 306 307 308 309 310 311 311 314 314 314 314 316
304 304 303 301 303 305 304 305 305 304 304 304 304 303 303 303 303 302 302 303 303 303 303 303 303 303 303 305 307 308 309 309 309 310 310 311 311 312 312 313 313 314 314
303 303 302 302 302 303 303 303 303 303 304 304 304 303 302 302 301 301 301 302 303 303 303 303 302 302 303 304 305 305 306 305 306 306 307 309 310 311 312 312 312 312 313
302 302 301 301 301 302 303 303 302 302 302 302 302 302 301 300 300 301 300 301 301 301 301 302 302 302 302 302 303 303 303 303 303 303 304 306 308 308 309 309 310 310 311
302 302 301 301 302 302 302 301 301 301 301 299 299 298 298 299 299 300 300 300 300 300 300 300 300 300 300 300 300 301 301 301 301 302 303 304 305 305 305 307 308 308 309
301 300 300 300 301 301 300 301 300 300 299 298 298 297 298 299 300 301 300 300 300 300 299 299 299 299 298 298 299 299 300 300 300 300 301 302 302 303 304 305 305 306 306
300 301 301 301 300 300 299 299 300 300 299 299 298 297 296 299 299 300 300 301 300 299 299 299 299 299 299 299 299 299 299 299 299 299 300 301 300 300 300 301 302 303 305
301 301 301 301 302 301 300 300 299 299 299 299 298 296 296 298 298 298 298 299 299 299 299 299 299 299 298 298 299 299 298 298 298 299 298 298 298 299 299 300 300 301 302
301 301 301 302 302 301 301 300 300 299 298 296 295 296 297 297 297 298 299 300 300 299 299 299 298 296 295 295 294 293 294 294 295 295 295 296 297 297 298 298 299 300 300
300 300 301 301 301 301 301 300 299 298 297 297 297 297 298 298 297 298 298 298 299 299 299 298 294 294 293 292 290 290 291 292 293 293 294 295 296 296 296 297 297 297 298
300 300 300 299 300 299 299 298 298 298 297 297 297 297 297 297 296 295 295 297 299 299 297 295 295 292 291 289 288 290 292 292 293 293 293 295 296 296 296 296 296 296 296
300 298 298 299 298 297 296 296 298 297 297 297 297 296 294 294 294 294 294 295 296 297 296 296 292 290 290 289 288 290 292 293 294 295 295 295 296 297 296 297 296 296 295
298 297 297 297 297 296 295 295 295 296 294 294 293 293 293 292 293 292 293 293 293 293 293 292 291 290 289 289 288 290 292 293 294 296 295 295 296 296 296 297 296 296 294
297 297 297 296 297 296 295 294 294 294 293 293 292 292 292 291 291 291 291 291 291 292 291 290 290 289 288 288 288 290 291 292 294 294 295 295 296 296 295 295 296 294 293
Wind_Speed
7 8 11 13 14 14 15 16 16 17 17 19 21 22 25 25 21 16 14 13 15 14 17 15 14 11 4 5 5 4 3 5 5 5 11 11 14 14 16 13 14 25 26
2 5 6 7 11 12 13 16 16 16 15 17 19 20 18 19 23 18 16 16 16 19 18 17 19 13 8 5 3 3 4 5 3 5 9 8 11 13 14 17 20 26 27
4 6 8 8 9 11 12 13 13 13 16 17 17 19 19 18 15 15 17 18 18 18 19 18 14 16 19 13 9 5 3 4 4 4 7 7 8 12 8 13 20 18 27
8 7 11 12 12 11 11 11 13 13 13 13 15 17 19 18 15 15 16 15 15 18 18 18 17 15 12 18 14 8 6 5 6 7 5 5 6 7 6 7 6 18 29
15 14 16 16 17 15 12 12 13 13 11 11 13 16 18 17 16 18 17 15 14 17 19 15 16 16 11 10 15 12 6 6 6 6 5 7 6 7 7 6 7 9 10
22 20 20 20 21 21 14 14 13 8 11 14 16 19 22 19 17 15 16 14 11 15 17 17 16 16 12 11 7 11 10 12 7 5 7 4 7 9 8 8 5 3 2
17 14 12 11 10 9 11 10 7 12 16 18 18 20 22 18 19 17 13 11 10 13 16 19 17 17 15 12 10 9 8 7 8 7 7 7 10 12 10 7 4 2 2
12 11 12 13 12 11 8 10 13 16 18 17 20 24 23 21 18 15 13 10 13 14 14 15 13 18 16 12 7 3 4 5 7 7 9 14 18 17 11 8 11 10 11
11 12 12 12 14 15 15 13 13 17 20 20 20 21 20 19 16 10 10 11 12 13 11 11 12 12 12 14 13 12 13 15 16 16 17 17 16 16 16 14 10 6 4
6 6 9 13 15 15 16 17 16 17 16 17 17 17 13 11 12 14 13 14 12 11 11 11 8 9 10 14 15 16 16 17 22 27 26 21 17 16 13 13 15 12 6
6 9 13 15 17 19 18 16 15 15 15 14 13 12 12 12 12 11 12 14 14 14 13 13 12 12 14 15 17 18 20 24 29 28 22 23 21 19 14 12 12 14 15
10 11 14 17 17 16 15 16 14 11 11 10 12 14 14 14 11 9 12 15 15 16 17 18 19 19 18 20 21 22 24 26 26 24 21 23 22 19 14 14 12 13 15
10 12 13 14 16 15 12 12 12 9 11 15 17 18 17 17 11 14 19 19 18 17 17 19 19 19 20 22 22 21 19 20 22 22 22 21 18 15 15 18 16 12 8
10 11 12 15 15 13 13 11 9 14 15 17 16 17 18 17 15 18 20 20 17 15 15 15 15 15 13 12 12 12 14 12 14 16 17 19 20 20 19 15 15 13 9
8 10 13 13 13 12 10 11 8 11 13 12 10 12 13 13 18 17 17 18 17 16 15 12 13 11 14 14 15 16 14 17 18 19 19 19 16 12 10 8 10 12 9
8 11 11 13 12 10 10 8 7 8 9 10 8 10 12 13 18 14 17 13 13 14 13 13 11 13 13 14 13 16 15 17 19 19 18 15 14 14 13 14 13 12 13
9 10 11 11 11 12 10 9 12 11 7 10 12 12 13 14 14 10 12 11 11 14 13 12 13 15 14 14 15 15 14 17 17 17 15 14 16 17 17 14 13 12 14
9 8 9 10 11 11 11 9 8 10 12 14 13 18 17 15 10 9 8 11 14 15 13 14 16 18 18 18 18 18 18 18 18 18 17 16 15 15 17 17 18 16 16
9 7 9 11 11 10 9 9 10 10 12 15 15 16 19 13 13 13 9 7 11 12 13 15 15 18 20 22 20 20 19 18 18 18 18 17 15 16 15 15 16 18 16
6 7 10 11 12 11 10 10 12 15 15 12 10 16 15 14 14 16 16 14 12 12 13 14 14 19 22 20 18 18 19 17 18 17 17 17 17 17 17 17 17 15 15
10 12 13 12 10 11 10 11 11 8 9 11 9 12 11 13 13 18 19 16 14 14 14 14 15 15 17 18 19 18 17 17 17 18 19 18 18 18 18 18 18 18 18
15 18 19 16 11 9 8 5 1 4 5 8 17 17 18 20 17 15 15 17 17 17 10 8 11 15 17 19 20 20 17 19 21 21 21 18 18 19 19 18 19 20 21
16 15 8 8 7 6 4 1 1 2 4 6 9 9 12 17 20 20 21 20 15 9 8 12 17 20 19 21 22 21 19 20 23 21 19 19 21 22 22 22 21 21 22
8 6 11 2 6 10 13 12 3 2 7 11 12 13 15 16 17 19 20 20 19 12 11 15 19 20 22 25 25 24 20 19 22 17 18 21 21 22 24 23 22 23 25
4 6 8 10 4 9 10 13 14 8 13 14 12 11 13 15 15 16 16 16 15 15 13 14 20 22 24 25 26 25 23 18 19 16 19 20 20 23 26 24 27 24 24
3 5 6 9 6 6 7 9 10 9 10 10 10 11 12 14 14 15 15 15 14 14 15 17 19 22 24 25 26 25 25 23 20 19 18 20 21 23 23 26 24 23 22
Wind_Direction
68 52 47 38 36 38 40 38 35 32 31 28 25 21 19 14 13 7 2 6 15 20 21 23 15 16 336 284 277 283 258 192 205 268 280 299 290 284 267 257 261 268 250
22 19 16 27 35 36 37 35 35 31 28 23 19 12 9 12 9 6 7 9 5 3 360 3 10 23 30 30 19 11 344 321 291 273 297 321 314 308 284 256 239 239 236
276 317 334 337 352 7 11 21 16 20 22 21 16 12 6 1 11 13 359 358 1 355 348 346 351 357 4 346 332 335 13 351 317 285 293 312 327 349 323 247 232 238 228
264 286 304 316 320 321 334 349 4 356 359 8 12 9 1 355 350 349 346 344 352 352 347 340 331 329 354 5 354 320 331 0 358 335 334 338 346 3 334 309 290 232 232
267 270 287 299 300 304 313 326 331 343 11 12 2 358 352 342 346 338 335 327 337 346 344 341 340 325 318 338 350 356 323 332 355 347 356 360 2 10 349 322 298 294 263
260 266 287 295 302 302 295 310 330 11 7 355 349 348 346 340 337 334 330 309 320 329 336 336 343 345 332 331 337 335 3 8 351 349 8 356 344 352 348 330 318 338 319
252 275 332 356 354 350 323 321 347 347 347 351 350 345 345 344 343 339 330 304 298 318 328 337 342 353 345 331 324 333 321 344 335 343 346 341 330 351 331 308 343 348 297
54 38 31 25 17 15 359 337 338 339 350 356 349 344 339 340 342 330 333 312 300 309 322 336 352 352 2 5 338 333 349 354 1 352 333 321 313 313 322 304 294 292 286
39 33 32 34 22 6 346 334 338 340 344 347 345 345 344 344 359 3 348 343 316 310 317 343 4 11 21 12 6 2 354 345 341 332 319 312 306 302 296 294 281 262 294
69 34 7 3 357 350 345 337 333 332 340 345 347 353 4 17 14 2 359 2 358 343 325 350 5 6 349 350 352 347 344 338 334 330 322 319 324 318 302 287 274 256 230
33 14 2 355 355 355 340 326 329 331 330 339 345 356 8 8 8 6 11 15 9 357 354 343 329 324 326 327 328 328 327 325 323 323 316 310 315 330 320 316 298 274 258
4 3 355 348 352 351 340 333 330 338 341 358 355 346 345 354 341 345 354 354 347 342 332 327 324 323 319 315 314 316 317 320 321 322 316 311 308 322 331 337 342 313 278
8 11 10 5 2 3 7 356 353 8 3 348 344 343 340 343 346 335 334 335 332 326 320 313 314 317 315 313 313 317 321 323 324 321 315 313 315 315 317 322 325 323 334
15 13 359 356 1 11 10 10 10 1 347 338 339 342 339 342 348 346 346 345 340 337 331 329 334 337 345 346 346 357 6 15 11 359 334 319 316 315 313 315 322 329 329
11 355 350 353 355 355 2 352 1 8 2 345 343 339 336 346 347 344 350 354 354 353 342 354 355 354 2 5 4 360 356 356 2 359 358 359 359 352 341 338 332 328 312
355 350 353 345 344 350 348 9 16 353 351 353 14 5 349 342 339 342 349 353 0 8 16 5 4 3 360 357 356 352 350 348 350 347 346 344 343 341 337 329 326 320 310
345 342 340 358 4 8 15 11 337 349 8 356 348 346 341 338 331 339 3 10 21 16 21 10 7 4 358 356 356 348 336 341 344 344 342 339 336 331 326 323 321 323 316
342 343 352 353 351 355 357 356 359 358 354 353 359 3 359 356 346 327 344 10 17 21 21 17 11 5 2 2 358 352 345 344 345 344 343 339 337 333 326 321 317 315 310
334 353 2 358 0 354 358 355 341 342 330 325 333 351 356 8 24 27 12 350 356 359 2 6 2 355 348 342 338 340 340 334 338 339 338 326 334 334 326 317 315 312 307
6 351 344 341 339 332 342 341 343 349 349 4 9 352 354 9 22 12 14 4 358 357 354 352 349 346 347 352 349 342 335 327 327 318 331 327 324 318 308 304 301 299 297
345 336 329 319 310 314 310 317 335 354 7 10 11 354 11 15 12 13 9 5 353 338 340 342 352 2 2 358 354 347 341 338 334 324 325 321 325 314 309 303 298 294 286
340 337 332 325 316 294 312 301 16 37 16 39 50 46 38 45 29 18 4 347 356 1 356 20 25 13 2 357 354 350 345 341 336 328 321 317 319 325 318 309 304 297 289
349 356 22 54 43 13 343 185 145 8 5 21 23 19 5 358 15 29 30 35 32 31 60 45 20 8 5 5 2 359 349 346 337 331 324 315 311 310 321 304 294 292 287
12 32 51 81 61 62 70 60 220 308 339 341 350 18 45 40 35 33 39 48 51 59 48 20 9 9 9 7 5 3 355 345 342 338 340 332 323 319 312 306 304 297 293
32 37 39 54 110 78 68 58 65 93 71 73 63 46 38 32 35 33 34 38 43 41 34 14 10 8 6 7 6 4 3 355 357 351 347 341 334 331 320 309 308 301 297
78 43 27 34 82 98 78 68 66 67 57 50 48 42 38 29 23 20 21 21 20 20 13 7 6 6 7 7 6 6 7 6 3 1 349 342 339 331 334 327 315 315 307